Probability
0 0 0 0 0 0 0 0 0 0 0 0 0 0 0 0 0 0 0 0 0 0 0 0 0 0 0 1 1 1 1 0 0 0 0 0 0 0 0 0 0 0 0 0
0 0 0 0 0 0 0 0 0 0 0 0 0 0 0 0 0 0 0 0 0 0 0 0 0 0 1 1 1 1 1 0 0 0 0 0 0 0 0 0 0 0 0 0
0 0 0 0 0 0 0 0 0 0 0 0 0 0 0 0 0 0 0 0 0 0 0 0 0 1 2 2 1 1 1 0 0 0 0 0 0 0 0 0 0 0 0 0
0 0 0 0 0 0 0 0 0 0 0 0 0 0 0 0 0 0 0 0 0 0 0 0 1 2 2 1 0 0 0 0 0 0 0 0 0 0 0 0 0 0 0 0
0 0 0 0 0 0 0 0 0 0 0 0 0 0 0 0 0 0 0 0 0 0 1 1 2 3 2 1 0 0 0 0 0 0 0 0 0 0 0 0 0 0 0 0
0 0 0 0 0 0 0 0 0 0 0 0 0 0 0 0 0 0 0 0 0 0 0 1 2 3 1 0 0 0 0 0 0 0 0 0 0 0 0 0 0 0 0 0
0 0 0 0 0 0 0 0 0 0 0 0 0 0 0 0 0 0 0 0 0 0 0 1 2 2 1 0 0 0 0 0 0 0 0 0 0 0 0 0 0 0 0 0
0 0 0 0 0 0 0 0 0 0 0 0 0 0 0 0 0 0 0 0 0 0 0 0 1 1 0 0 0 0 0 0 0 0 0 0 0 0 0 0 0 0 0 0
0 0 0 0 0 0 0 0 0 0 0 0 0 0 0 0 0 0 0 0 0 0 0 0 0 0 0 0 0 0 0 0 0 0 0 0 0 0 0 0 0 0 0 0
0 0 0 0 0 0 0 0 0 0 0 0 0 0 0 0 0 0 0 0 0 0 0 0 0 0 0 0 0 0 0 0 0 0 0 0 0 0 0 0 0 0 0 0
0 0 0 0 0 0 0 0 0 0 0 0 0 0 0 0 0 0 0 0 0 0 0 0 0 0 0 0 0 0 0 0 0 0 0 0 0 0 0 0 0 0 0 0
0 0 0 0 0 0 0 0 0 0 0 0 0 0 0 0 0 0 0 0 0 0 0 0 0 0 0 0 0 0 0 0 0 0 0 0 0 0 0 0 0 0 0 0
0 0 0 0 0 0 0 0 0 0 0 0 0 0 0 0 0 0 0 0 0 0 0 0 0 0 0 0 0 0 0 0 0 0 0 0 0 0 0 0 0 0 0 0
0 0 0 0 0 0 0 0 0 0 0 0 0 0 0 0 0 0 0 0 0 0 0 0 0 0 0 0 0 0 0 0 0 0 0 0 0 0 0 0 0 0 0 0
0 0 0 0 0 0 0 0 0 0 0 0 0 0 0 0 0 0 0 0 0 0 0 0 0 0 0 0 0 0 0 0 0 0 0 0 0 0 0 0 0 0 0 0
0 0 0 0 0 0 0 0 0 0 0 0 0 0 0 0 0 0 0 0 0 0 0 0 0 0 0 0 0 0 0 0 0 0 0 0 0 0 0 0 0 0 0 1
0 0 0 0 0 0 0 0 0 0 0 0 0 0 0 0 0 0 0 0 0 0 0 0 0 0 0 0 0 0 0 0 0 0 0 0 0 0 0 0 0 0 0 1
0 0 0 0 0 0 0 0 0 0 0 0 0 0 0 0 0 0 0 0 0 0 0 0 0 0 0 0 0 0 0 0 0 0 0 0 0 0 0 0 0 0 0 1
0 0 0 0 0 0 0 0 0 0 0 0 0 0 0 0 0 0 0 0 0 0 0 0 0 0 0 0 0 0 0 0 0 0 0 0 0 0 0 0 0 0 0 0
0 0 0 0 0 0 0 0 0 0 0 0 0 0 0 0 0 0 0 0 0 0 0 0 0 0 0 0 0 0 0 0 0 0 0 0 0 0 0 0 0 0 0 0
0 0 0 0 0 0 0 0 0 0 0 0 0 0 0 0 0 0 0 0 0 0 0 0 0 0 0 0 0 0 0 0 0 0 0 0 0 0 0 0 0 0 0 0
0 0 0 0 0 0 0 0 0 0 0 0 0 0 0 0 0 0 0 0 0 0 0 0 0 0 0 0 0 0 0 0 0 0 0 0 0 0 0 0 0 0 0 0
0 0 0 0 0 0 0 0 0 0 0 0 0 0 0 0 0 0 0 0 0 0 0 0 0 0 0 0 0 0 0 0 0 0 0 0 0 0 0 0 0 0 0 0
0 0 0 0 0 0 0 0 0 0 0 0 0 0 0 0 0 0 0 0 0 0 0 0 0 0 0 0 0 0 0 0 0 0 0 0 0 0 0 0 0 0 0 0
0 0 0 0 0 0 0 0 0 0 0 0 0 0 0 0 0 0 0 0 0 0 0 0 0 0 0 0 0 0 0 0 0 0 0 0 0 0 0 0 0 0 0 0
0 0 0 0 0 0 0 0 0 0 0 0 0 0 0 0 0 0 0 0 0 0 0 0 0 0 0 0 0 0 0 0 0 0 0 0 0 0 0 0 0 0 0 0
0 0 0 0 0 0 0 0 0 0 0 0 0 0 0 0 0 0 0 0 0 0 0 0 0 0 0 0 0 0 0 0 0 0 0 0 0 0 0 0 0 0 0 0
Wind_Speed
13 12 11 15 17 16 18 20 18 19 21 24 20 22 27 28 28 28 29 32 33 33 31 30 27 25 25 25 24 24 22 22 22 22 21 22 20 14 12 13 11 14 18 20
7 11 13 18 20 19 17 19 22 23 25 19 19 19 24 27 27 27 29 32 35 35 34 31 29 27 27 26 26 25 24 23 22 21 21 22 21 19 15 13 13 14 18 20
5 1 6 14 16 18 14 13 17 18 19 18 22 20 21 26 24 26 29 30 33 35 33 31 29 29 27 27 27 28 26 21 20 21 22 20 20 20 14 13 14 16 19 17
4 2 10 4 2 2 10 13 14 16 16 16 22 21 19 19 22 25 27 30 31 31 32 31 30 28 27 27 26 27 26 20 20 20 21 20 20 19 14 12 13 14 18 15
6 7 10 8 6 4 3 11 12 10 13 17 17 21 17 17 18 23 27 26 26 28 30 31 28 27 27 27 25 25 25 22 21 20 20 20 19 18 15 14 14 14 16 10
6 6 9 3 6 5 1 7 5 6 13 15 16 17 20 23 24 26 28 28 29 29 30 28 27 27 27 26 26 25 25 25 23 20 18 18 18 15 14 14 14 13 12 11
12 9 11 9 8 6 4 4 3 7 9 10 11 14 20 21 24 25 26 29 31 29 27 27 27 27 27 28 26 25 25 25 24 20 16 17 16 14 13 14 13 11 9 9
11 11 15 8 10 10 5 5 6 5 5 8 13 17 18 18 21 24 27 29 29 26 28 27 26 26 28 28 28 26 25 24 23 20 16 12 13 13 12 13 12 10 8 8
13 13 8 11 9 7 3 4 3 3 5 7 13 15 16 18 20 23 26 26 26 27 29 27 26 26 28 29 28 27 26 23 20 18 16 12 11 12 10 9 9 7 8 9
9 15 13 11 12 5 5 4 2 1 4 5 11 14 16 17 18 20 23 24 25 27 28 30 29 28 27 27 27 26 25 23 19 15 14 12 9 10 9 7 7 7 8 8
11 13 10 14 12 8 7 5 3 2 3 5 8 11 14 16 18 19 21 22 22 23 26 29 30 29 28 27 28 26 24 21 17 15 12 11 11 9 8 9 9 8 7 7
11 11 10 7 8 10 10 7 5 3 3 5 6 10 13 14 16 18 19 21 22 24 26 28 29 28 26 27 28 26 23 20 18 17 10 9 9 9 15 16 17 18 14 11
14 8 5 5 9 10 9 8 7 5 4 4 4 7 11 14 14 17 19 21 22 24 24 25 27 27 27 26 25 23 20 19 17 16 16 11 8 6 5 8 15 15 15 16
14 7 6 7 8 10 9 9 7 5 4 1 3 6 9 12 14 15 16 19 21 22 22 23 25 25 28 27 27 24 22 21 18 15 14 15 15 12 10 7 4 1 6 12
12 10 5 8 11 10 10 9 7 6 4 1 3 5 8 11 13 14 15 15 18 19 21 23 24 26 28 27 26 23 20 19 18 15 15 16 16 16 16 17 15 14 13 8
6 7 8 8 10 11 11 9 7 6 4 1 3 5 7 9 10 11 12 14 15 17 19 21 23 25 25 25 24 20 18 21 20 16 16 17 16 16 16 15 15 16 17 17
8 7 8 9 13 14 12 10 8 7 5 3 2 4 6 7 8 10 11 12 12 12 14 18 21 23 21 22 21 17 16 18 20 16 16 16 15 15 15 15 14 14 16 20
15 13 13 12 12 14 13 11 9 8 5 4 1 2 3 5 7 9 10 10 11 11 13 17 20 21 20 21 19 16 15 15 16 16 15 16 16 14 15 15 15 15 14 20
11 9 8 7 8 11 11 10 8 7 5 3 2 1 2 4 6 8 9 8 10 12 15 18 21 20 20 23 21 15 15 16 15 15 15 17 16 15 15 15 15 15 15 15
8 8 10 10 9 9 10 9 8 6 5 3 2 0 2 3 5 6 7 6 7 8 12 14 16 15 16 19 20 14 14 16 16 16 16 16 16 15 16 17 17 16 16 16
10 11 12 11 10 9 10 10 9 7 5 4 3 1 2 3 4 4 5 6 8 11 12 13 12 12 12 14 14 12 12 13 14 14 14 14 14 14 14 15 15 15 14 15
11 11 12 12 12 10 8 8 8 8 6 5 3 2 2 2 3 2 1 3 7 10 8 8 10 13 13 13 10 11 12 12 11 11 11 11 12 12 13 13 13 13 13 13
11 12 13 13 12 12 10 7 7 8 7 6 4 2 1 2 3 3 2 4 7 9 7 7 11 14 14 10 9 10 12 12 11 11 11 11 10 10 10 11 11 11 11 11
12 12 11 12 13 12 11 9 8 7 6 5 4 3 2 1 2 2 4 6 7 8 7 8 11 12 10 8 8 8 9 9 10 10 10 10 9 9 9 10 10 10 10 11
11 11 12 13 11 10 10 11 9 8 7 5 5 4 3 2 2 3 4 5 6 6 6 8 10 9 7 6 7 8 7 7 8 8 8 8 9 9 9 9 9 9 9 8
12 10 9 9 8 8 9 9 8 8 7 5 4 3 2 2 3 3 4 4 5 5 5 5 6 6 6 5 5 5 6 6 7 7 7 7 7 7 7 7 8 8 7 7
11 11 9 8 8 8 8 8 8 7 7 5 4 3 3 2 2 3 4 4 4 4 4 4 4 5 5 6 6 5 5 5 5 5 5 5 5 5 6 7 7 7 7 7
Wind_Direction
266 274 261 257 255 242 227 233 251 270 279 291 315 326 321 322 324 320 322 324 324 322 322 320 319 318 317 312 307 302 296 293 293 292 295 298 296 290 279 276 279 284 293 251
263 260 262 263 259 251 238 238 247 265 276 296 319 319 319 321 322 326 325 324 322 320 319 319 320 319 316 312 310 307 299 289 287 286 285 284 288 280 271 274 281 283 286 244
257 275 305 265 243 234 225 223 237 254 274 314 312 322 325 317 327 328 321 321 320 318 317 318 319 317 315 312 313 307 295 286 283 280 278 275 273 277 263 266 274 280 284 233
251 206 246 264 162 200 241 246 249 268 293 310 317 320 316 320 333 324 322 321 319 316 314 317 317 316 313 311 308 307 302 292 284 276 272 274 272 273 270 271 266 280 272 220
228 238 281 283 237 193 218 259 249 271 303 314 321 310 309 337 335 321 319 315 313 313 312 315 318 317 314 310 311 308 305 302 293 281 273 272 265 265 275 274 268 278 265 210
212 244 258 239 150 127 7 271 165 304 311 320 325 315 320 334 328 324 322 317 318 317 318 317 319 318 314 315 313 310 309 307 298 282 270 271 268 257 259 265 266 275 259 211
222 241 263 246 179 147 220 235 287 314 309 316 304 301 308 317 317 319 317 313 316 319 319 321 322 320 319 317 314 312 307 305 302 293 265 257 262 258 261 262 260 263 243 213
206 221 254 196 162 193 242 305 305 302 305 301 296 304 310 314 316 318 318 319 320 323 321 323 324 324 322 319 316 313 310 305 301 295 282 252 256 261 253 250 258 254 224 204
197 217 230 191 201 212 217 246 244 269 310 310 303 306 313 316 318 319 318 319 321 324 321 323 327 329 324 322 322 319 312 305 297 291 289 268 249 256 256 254 254 250 223 203
223 244 236 221 228 229 197 205 178 257 299 302 298 309 315 317 318 319 320 321 323 324 324 324 329 331 327 326 327 320 313 307 301 290 289 285 249 237 240 251 256 244 223 209
240 253 253 250 247 227 181 169 183 239 296 301 302 309 317 316 317 320 320 319 324 325 324 324 328 330 331 333 330 325 321 318 315 304 281 274 262 240 237 239 236 233 216 197
227 224 225 223 179 169 178 192 194 227 275 279 304 315 317 312 316 323 323 324 328 326 326 325 329 329 334 337 333 332 332 332 326 318 293 268 270 249 238 241 241 229 206 180
242 232 209 152 159 169 177 171 167 179 230 272 316 318 314 313 320 326 329 331 331 326 325 327 329 331 337 339 336 335 336 338 334 338 342 323 281 252 245 242 237 221 186 167
237 215 216 184 175 163 155 147 145 167 181 188 332 326 321 319 323 331 337 335 329 326 327 332 333 336 339 341 339 341 345 349 350 349 349 352 359 6 13 18 38 50 176 168
220 202 187 131 134 145 148 149 162 170 161 128 358 342 335 328 327 331 335 334 331 331 334 337 339 340 344 342 341 343 350 354 352 354 358 6 13 18 21 23 24 20 20 28
182 153 153 164 169 169 168 173 178 173 171 165 1 346 331 320 321 329 337 340 340 336 337 339 342 341 343 342 343 346 351 357 0 2 7 14 19 21 21 23 23 24 28 19
152 195 200 204 191 184 182 174 169 165 162 149 12 330 324 329 333 340 338 337 336 331 341 346 341 342 344 346 350 350 350 356 4 9 15 18 21 23 25 26 28 29 29 33
202 203 188 187 181 175 166 160 157 157 154 142 107 331 334 341 334 328 326 329 338 344 354 348 344 346 347 352 357 355 356 358 4 11 13 19 23 23 28 30 29 30 28 29
189 166 152 145 144 141 141 146 147 141 135 131 118 6 328 321 318 316 321 338 357 355 347 344 348 354 350 354 360 359 2 5 9 12 15 19 23 24 26 29 28 27 27 29
140 132 126 114 104 112 122 127 130 130 136 138 132 326 315 330 326 320 327 6 15 344 333 344 352 356 355 354 0 3 6 11 13 13 15 18 20 21 24 28 28 26 25 26
143 135 129 124 114 112 124 133 138 142 150 157 167 202 291 323 330 324 348 7 3 349 348 354 360 358 357 358 1 6 12 17 19 17 14 16 19 22 23 25 27 27 25 24
140 138 133 128 128 127 131 137 137 140 150 162 179 209 264 319 335 335 56 1 338 345 353 356 0 6 360 1 9 10 14 20 23 21 18 17 17 20 21 19 23 24 22 21
140 140 139 140 141 138 137 140 144 149 155 162 166 170 287 324 336 341 345 349 340 343 354 357 360 8 3 5 11 15 16 17 19 19 17 16 15 17 20 18 18 19 18 17
136 137 135 130 128 136 148 160 157 156 154 158 165 178 221 255 258 292 318 324 334 341 348 350 0 10 5 2 2 11 19 17 15 15 14 14 11 11 18 19 16 14 14 15
123 122 129 138 149 159 154 154 154 157 162 168 176 187 204 230 268 301 313 319 329 339 342 347 355 2 6 3 357 355 3 13 10 8 8 8 6 6 8 11 8 0 360 3
134 137 143 148 152 151 154 161 165 161 162 165 175 192 216 243 266 284 297 308 323 332 336 340 341 344 349 351 353 351 348 354 1 5 359 356 356 355 355 356 354 349 345 344
128 133 136 141 148 154 159 166 162 163 168 162 162 185 219 252 275 291 304 312 316 320 326 327 327 330 332 333 335 338 340 343 348 349 345 342 342 342 341 339 334 330 327 328